Domov               UVHVVR             MKGP            O straneh              
ZDRAVSTVENO VARSTVO RASTLIN
  MREŽA AGROMET. POSTAJ
 ► PROGNOSTIČNA OBVESTILA
AGROMETEOROLOŠKI PODATKI -
ARSO
OBVLADOVANJE TVEGANJ ZARADI
NEUGODNIH VREMENSKIH RAZMER
  ► NARAVNE NESREČE
  ► SUŠA/MOČA
  ► NAMAKANJE
  ► ŽLED (gozdarstvo)
KARTOGRAFSKI PRIKAZI
SPLETNE POVEZAVE
PROJEKTI IN PUBLIKACIJE

AGROMETEOROLOŠKA MREŽA: VREMENSKE POSTAJE IN FENOLOŠKA OPAZOVANJA

Pregled podatkov za lokacijo Sužid, meteorološka postaja 37878

Pregled senzorjev na lokaciji

ID Ime Zadnja
vrednost
Datum
zadnje
spremembe
Tip
senzorja
1808 Omočenost lista (U) 0 U 18.3.2019 22:59 A730WET
1805 Padavine (mm) 0 mm 18.3.2019 22:59 Rain-O-Matic
1807 Relativna vlaga 2 m (% RH) 93,48 % RH 18.3.2019 22:59 50YA
1806 Temperatura 2 m (°C) 2,76 °C 18.3.2019 22:59 50YA

Pregled podatkov zadnjih 24 ur

Zap.
št.
Datum in čas Sužid
Omočenost
lista
Padavine Relativna
vlaga
2
m
Temperatura
2
m
1 18.3.2019 22:00
2 18.3.2019 21:30 0 0 96,5 2,4
3 18.3.2019 21:00 0 0 96 2,6
4 18.3.2019 20:30 0 0 93,9 2,8
5 18.3.2019 20:00 0 0 92,3 3,1
6 18.3.2019 19:30 0 0 84,4 3,8
7 18.3.2019 19:00 0 0 79,7 4,3
8 18.3.2019 18:30 0 0 81,6 4,2
9 18.3.2019 18:00 0 0 83,5 4,1
10 18.3.2019 17:30 0 0 87,8 3,8
11 18.3.2019 17:00 0 0 89,2 3,8
12 18.3.2019 16:30 1 0 88,8 3,8
13 18.3.2019 16:00 1 0 89,7 3,7
14 18.3.2019 15:30 1 0 90 3,6
15 18.3.2019 15:00 1 0,2 83,9 4,2
16 18.3.2019 14:30 1 0,6 77,9 4,4
17 18.3.2019 14:00 1 1,6 81,3 3,9
18 18.3.2019 13:30 1 0,8 81,8 4,1
19 18.3.2019 13:00 1 0,6 82,1 4,1
20 18.3.2019 12:30 1 1,6 80,7 4
21 18.3.2019 12:00 1 1,4 83,9 3,8
22 18.3.2019 11:30 1 2 84,8 3,7
23 18.3.2019 11:00 1 1,8 86,2 3,8
24 18.3.2019 10:30 1 2 82,4 4,4
25 18.3.2019 10:00 2 3 78,2 4,8
26 18.3.2019 09:30 1 2,8 79,9 5
27 18.3.2019 09:00 2 4,8 84,7 4,6
28 18.3.2019 08:30 2 4,4 79,8 5,7
29 18.3.2019 08:00 2 1,6 86,3 6,9
30 18.3.2019 07:30 2 0,6 98,5 7,8
31 18.3.2019 07:00 2 0,8 99,9 8,1
32 18.3.2019 06:30 2 1,4 99,9 8,2
33 18.3.2019 06:00 2 2,8 99,4 8,5
34 18.3.2019 05:30 2 3,2 89,1 9,4
35 18.3.2019 05:00 2 0 83,2 10,1
36 18.3.2019 04:30 1 0 83,4 10,1
37 18.3.2019 04:00 2 0,2 97,2 9,1
38 18.3.2019 03:30 2 0,2 99,9 8,6
39 18.3.2019 03:00 2 0,8 99,9 8,4
40 18.3.2019 02:30 2 1,2 99,9 8,4
41 18.3.2019 02:00 2 0,2 99,9 8,4
42 18.3.2019 01:30 2 0,2 99,9 8,4
43 18.3.2019 01:00 2 1,2 99,9 8,5
44 18.3.2019 00:30 2 0,8 99,9 8,5
45 18.3.2019 00:00 2 1,2 99,9 8,4
46 17.3.2019 23:30 2 1 99,9 8,5
47 17.3.2019 23:00 2 0,6 97,9 8,5
48 17.3.2019 22:30 2 0,4 95,3 8,7
© 2011 Ministrstvo za kmetijstvo, gozdarstvo in prehrano. Vse pravice pridržane.